EW3502 Weather Reports


time (UTC)temp
C
wind
direction
speed
KPH
gust
KPH
rain 1hr
cm
rain 24hr
cm
rain mn
cm
humidity
%
barometer
mb
20260506103051 3 350 4.8 9.7 0.00 0.00 0.00 83 1011.2
20260506102550 3 346 3.2 9.7 0.00 0.00 0.00 84 1011.2
20260506102049 3 17 1.6 4.8 0.00 0.00 0.00 85 1011.2
20260506101550 3 18 0.0 3.2 0.00 0.00 0.00 84 1011.2
20260506101049 3 18 0.0 3.2 0.00 0.00 0.00 83 1011.2
20260506100548 3 19 0.0 1.6 0.00 0.00 0.00 83 1011.3
20260506100047 3 19 0.0 3.2 0.00 0.00 0.00 83 1011.2
20260506095549 3 19 0.0 3.2 0.00 0.00 0.00 83 1011.1
20260506095046 3 19 1.6 6.4 0.00 0.00 0.00 82 1011.1
20260506094545 3 19 0.0 6.4 0.00 0.00 0.00 82 1011.1
20260506094043 3 19 1.6 8.0 0.00 0.00 0.00 82 1011.3
20260506093543 3 19 3.2 9.7 0.00 0.00 0.00 82 1011.3
20260506093043 3 19 3.2 11.3 0.00 0.00 0.00 82 1011.4
20260506092543 3 20 3.2 12.9 0.00 0.00 0.00 81 1011.4
20260506092043 3 19 3.2 12.9 0.00 0.00 0.00 81 1011.4
20260506091543 4 341 6.4 12.9 0.00 0.00 0.00 81 1011.3
20260506091046 4 11 6.4 12.9 0.00 0.00 0.00 81 1011.2
20260506090526 4 9 4.8 14.5 0.00 0.00 0.00 81 1011.3
20260506090022 4 9 8.0 14.5 0.00 0.00 0.00 81 1011.3
20260506085525 4 336 4.8 12.9 0.00 0.00 0.00 81 1011.3
20260506085021 4 9 6.4 12.9 0.00 0.00 0.00 81 1011.4
20260506084521 4 9 6.4 14.5 0.00 0.00 0.00 80 1011.5
20260506084024 4 329 6.4 14.5 0.00 0.00 0.00 79 1011.5
20260506083503 4 17 8.0 14.5 0.00 0.00 0.00 80 1011.4
20260506083003 4 349 8.0 14.5 0.00 0.00 0.00 81 1011.4
20260506082501 4 355 4.8 14.5 0.00 0.00 0.00 81 1011.3
20260506082001 4 13 8.0 14.5 0.00 0.00 0.00 81 1011.5
20260506081602 5 351 6.4 12.9 0.00 0.00 0.00 81 1011.5
20260506081100 5 9 4.8 14.5 0.00 0.00 0.00 82 1011.3
20260506080549 5 9 8.0 14.5 0.00 0.00 0.00 82 1011.1
20260506073047 5 17 6.4 14.5 0.00 0.00 0.00 83 1011.0
20260506072543 5 344 4.8 14.5 0.00 0.00 0.00 83 1011.0
20260506072043 5 348 4.8 12.9 0.00 0.00 0.00 83 1010.8
20260506071543 5 325 6.4 14.5 0.00 0.00 0.00 84 1010.8
20260506071042 5 355 8.0 14.5 0.00 0.00 0.00 85 1010.7
20260506070541 5 9 6.4 16.1 0.00 0.00 0.00 84 1010.6
20260506062036 4 355 3.2 8.0 0.00 0.00 0.00 86 1010.7
20260506061536 4 360 3.2 14.5 0.00 0.00 0.00 87 1010.8
20260506061035 4 355 3.2 14.5 0.00 0.00 0.00 87 1011.1
20260506060533 4 336 3.2 11.3 0.00 0.00 0.00 88 1011.1
20260506051016 4 326 0.0 11.3 0.00 0.00 0.00 83 1011.3
20260506050515 4 327 1.6 11.3 0.00 0.00 0.00 83 1011.1
20260506045013 4 267 1.6 11.3 0.00 0.00 0.00 82 1011.0
20260506044513 4 266 3.2 11.3 0.00 0.00 0.00 83 1011.1
20260506044012 4 262 3.2 12.9 0.00 0.00 0.00 82 1011.1
20260506043516 4 275 3.2 12.9 0.00 0.00 0.00 82 1011.1
20260506043016 4 273 3.2 12.9 0.00 0.00 0.00 82 1011.0
20260506042513 4 275 3.2 12.9 0.00 0.00 0.00 82 1011.2
20260506042010 4 264 6.4 12.9 0.00 0.00 0.00 82 1011.1
20260506041509 4 275 1.6 11.3 0.00 0.00 0.00 83 1011.1
20260506041008 4 275 3.2 11.3 0.00 0.00 0.00 82 1011.1
20260506040507 4 281 3.2 11.3 0.00 0.00 0.00 83 1011.1
20260506040150 4 283 0.0 8.0 0.00 0.00 0.00 82 1011.0
20260506035549 4 283 1.6 6.4 0.00 0.00 0.00 82 1010.9
20260506035149 4 283 0.0 9.7 0.00 0.00 0.00 82 1010.9
20260506034552 4 282 3.2 9.7 0.00 0.00 0.00 81 1011.0
20260506034047 4 284 0.0 9.7 0.00 0.00 0.00 81 1010.9
20260506033547 4 289 1.6 9.7 0.00 0.00 0.00 81 1011.0
20260506033035 4 291 0.0 6.4 0.00 0.00 0.00 81 1010.9
20260506032534 4 291 0.0 9.7 0.00 0.00 0.00 80 1010.9
20260506032035 4 292 0.0 8.0 0.00 0.00 0.00 80 1010.9
20260506031533 4 292 0.0 11.3 0.00 0.00 0.00 79 1011.0
20260506031034 4 292 1.6 11.3 0.00 0.00 0.00 79 1011.0
20260506030532 4 300 0.0 3.2 0.00 0.00 0.00 78 1010.9
20260506030030 4 300 0.0 9.7 0.00 0.00 0.00 77 1010.9
20260506025529 4 300 1.6 11.3 0.00 0.00 0.00 77 1010.9
20260506025028 4 303 4.8 11.3 0.00 0.00 0.00 77 1010.8
20260506024535 4 304 1.6 8.0 0.00 0.00 0.00 76 1010.9
20260506024027 5 304 3.2 9.7 0.00 0.00 0.00 76 1010.9
20260506023529 5 305 4.8 9.7 0.00 0.00 0.00 76 1010.8
20260506023026 5 306 3.2 11.3 0.00 0.00 0.00 76 1010.8
20260506022525 5 304 3.2 11.3 0.00 0.00 0.00 76 1010.9
20260506022025 5 307 3.2 9.7 0.00 0.00 0.00 75 1010.9
20260506021541 5 307 4.8 9.7 0.00 0.00 0.00 75 1010.8
20260506021023 5 304 1.6 11.3 0.00 0.00 0.00 75 1010.8
20260506020526 5 302 4.8 11.3 0.00 0.00 0.00 74 1010.8
20260506020022 5 292 4.8 12.9 0.00 0.00 0.00 74 1010.7
20260506015522 5 319 4.8 12.9 0.00 0.00 0.00 74 1010.7
20260506015021 5 306 3.2 9.7 0.00 0.00 0.00 74 1010.7
20260506014524 5 304 3.2 11.3 0.00 0.00 0.00 74 1010.7
20260506014018 5 298 3.2 12.9 0.00 0.00 0.00 74 1010.5
20260506013517 5 323 3.2 12.9 0.00 0.00 0.00 74 1010.4
20260506013005 5 327 4.8 12.9 0.00 0.00 0.00 74 1010.2
20260506012505 5 273 3.2 11.3 0.00 0.00 0.00 74 1010.2
20260506012003 5 265 3.2 11.3 0.00 0.00 0.00 74 1010.1
20260506011508 5 250 3.2 11.3 0.00 0.00 0.00 74 1010.1
20260506011002 5 273 4.8 12.9 0.00 0.00 0.00 74 1010.0
20260506010501 5 277 3.2 12.9 0.00 0.00 0.00 73 1010.0
20260506010000 5 279 6.4 17.7 0.00 0.00 0.00 73 1010.0
20260506005600 5 263 8.0 17.7 0.00 0.00 0.00 72 1009.9
20260506005059 5 252 8.0 14.5 0.00 0.00 0.00 71 1009.8
20260506004603 5 256 6.4 12.9 0.00 0.00 0.00 72 1009.8
20260506004058 5 263 4.8 12.9 0.00 0.00 0.00 72 1009.8
20260506003601 5 252 4.8 12.9 0.00 0.00 0.00 72 1009.7
20260506003103 5 254 6.4 12.9 0.00 0.00 0.00 71 1009.7
20260506002555 5 304 6.4 12.9 0.00 0.00 0.00 71 1009.6
20260506002055 5 260 4.8 14.5 0.00 0.00 0.00 71 1009.8
20260506001606 5 250 3.2 14.5 0.00 0.00 0.00 71 1009.7
20260506001053 6 265 1.6 12.9 0.00 0.00 0.00 70 1009.9
20260506000554 6 275 4.8 11.3 0.00 0.00 0.00 70 1009.9
20260506000053 6 257 3.2 14.5 0.00 0.00 0.00 70 1009.9
20260505235552 6 252 4.8 14.5 0.00 0.00 0.00 69 1009.8
20260505235051 6 241 4.8 14.5 0.00 0.00 0.00 69 1009.7
20260505234608 6 292 4.8 14.5 0.00 0.00 0.00 69 1009.6
20260505234049 6 260 6.4 14.5 0.00 0.00 0.00 68 1009.7
20260505233550 6 244 3.2 14.5 0.00 0.00 0.00 69 1009.7
20260505233050 6 258 3.2 14.5 0.00 0.00 0.00 68 1009.7
20260505232535 6 258 6.4 14.5 0.00 0.00 0.00 67 1009.6
20260505232032 6 257 3.2 14.5 0.00 0.00 0.00 67 1009.6
20260505231530 6 279 4.8 17.7 0.00 0.00 0.00 66 1009.6
20260505231026 6 259 6.4 20.9 0.00 0.00 0.00 66 1009.6
20260505230526 7 251 6.4 20.9 0.00 0.00 0.00 67 1009.5
20260505230025 7 257 6.4 14.5 0.00 0.00 0.00 67 1009.5
20260505225507 7 283 0.0 12.9 0.00 0.00 0.00 66 1009.5
20260505225007 7 286 3.2 12.9 0.00 0.00 0.00 66 1009.5
20260505224510 7 273 3.2 16.1 0.00 0.00 0.00 65 1009.4
20260505224006 7 278 8.0 16.1 0.00 0.00 0.00 66 1009.6
20260505223506 8 226 4.8 16.1 0.00 0.00 0.00 67 1009.7
20260505223007 8 282 8.0 16.1 0.00 0.00 0.00 65 1009.6
20260505222554 8 264 3.2 22.5 0.00 0.00 0.00 64 1009.7
20260505222054 8 267 8.0 22.5 0.00 0.00 0.00 62 1009.8
20260505221554 8 261 3.2 16.1 0.00 0.00 0.00 63 1009.7
20260505221053 8 311 1.6 16.1 0.00 0.00 0.00 63 1009.6
20260505220552 8 286 1.6 19.3 0.00 0.00 0.00 66 1009.7
20260505220051 8 269 4.8 14.5 0.00 0.00 0.00 68 1009.6
20260505215553 8 235 6.4 16.1 0.00 0.00 0.00 65 1009.6
20260505215051 8 261 8.0 16.1 0.00 0.00 0.00 65 1009.4
20260505214557 8 279 8.0 16.1 0.00 0.00 0.00 64 1009.4
20260505214051 8 232 3.2 16.1 0.00 0.00 0.00 65 1009.4
20260505213550 8 250 6.4 17.7 0.00 0.00 0.00 61 1009.2
20260505213053 8 272 6.4 17.7 0.00 0.00 0.00 62 1009.2
20260505212549 8 289 9.7 19.3 0.00 0.00 0.00 61 1009.3
20260505212050 8 296 4.8 19.3 0.00 0.00 0.00 61 1009.3
20260505211556 8 230 1.6 17.7 0.00 0.00 0.00 65 1009.4
20260505211046 8 271 3.2 17.7 0.00 0.00 0.00 65 1009.3
20260505210545 8 260 6.4 17.7 0.00 0.00 0.00 67 1009.2
20260505210043 7 277 4.8 19.3 0.00 0.00 0.00 67 1009.1
20260505205542 7 282 6.4 19.3 0.00 0.00 0.00 68 1009.0
20260505205040 7 233 9.7 19.3 0.00 0.00 0.00 68 1009.1
20260505204539 7 267 8.0 17.7 0.00 0.00 0.00 70 1009.1
20260505204037 7 266 8.0 17.7 0.00 0.00 0.00 69 1008.9
20260505203536 7 300 4.8 19.3 0.00 0.00 0.00 70 1008.9
20260505203049 7 269 9.7 19.3 0.00 0.00 0.00 68 1008.9
20260505202518 7 301 4.8 14.5 0.00 0.00 0.00 68 1008.9
20260505202017 7 284 1.6 19.3 0.00 0.00 0.00 71 1008.9
20260505201515 7 338 8.0 19.3 0.00 0.00 0.00 70 1008.8
20260505201018 7 231 6.4 14.5 0.00 0.00 0.00 71 1008.8
20260505200514 7 275 11.3 16.1 0.00 0.00 0.00 71 1008.9
20260505191037 7 244 11.3 30.6 0.00 0.00 0.00 67 1007.9
20260505190535 7 271 11.3 32.2 0.00 0.00 0.00 68 1007.9
20260505190035 7 299 11.3 32.2 0.00 0.00 0.00 69 1007.8
20260505185537 7 258 11.3 30.6 0.00 0.00 0.00 67 1007.8
20260505185033 7 274 12.9 30.6 0.00 0.00 0.00 66 1007.6
20260505184544 7 289 11.3 29.0 0.00 0.00 0.00 67 1007.6
20260505184016 7 287 16.1 29.0 0.00 0.00 0.00 68 1007.4
20260505183512 7 269 11.3 29.0 0.00 0.00 0.00 70 1007.4
20260505183014 7 313 9.7 30.6 0.00 0.00 0.00 71 1007.4
20260505182512 7 276 12.9 30.6 0.00 0.00 0.00 69 1007.6
20260505182012 7 275 11.3 24.1 0.00 0.00 0.00 71 1007.6
20260505181511 7 271 8.0 22.5 0.00 0.00 0.00 73 1007.4
20260505181059 7 342 9.7 22.5 0.00 0.00 0.00 72 1007.5
20260505180558 7 253 11.3 22.5 0.00 0.00 0.00 73 1007.3
20260505180104 7 231 8.0 22.5 0.00 0.00 0.00 73 1007.3
20260505175557 7 285 8.0 24.1 0.00 0.00 0.00 72 1007.3
20260505175104 7 288 11.3 24.1 0.00 0.00 0.00 71 1007.3
20260505174556 7 242 6.4 25.7 0.00 0.00 0.00 72 1007.3
20260505174056 7 286 12.9 25.7 0.00 0.00 0.00 71 1007.2
20260505173558 7 310 11.3 30.6 0.00 0.00 0.00 71 1007.1
20260505173053 7 245 8.0 30.6 0.00 0.00 0.00 70 1007.0
20260505172556 7 266 8.0 25.7 0.00 0.00 0.00 70 1006.9
20260505172053 7 218 8.0 24.1 0.00 0.00 0.00 70 1006.8
20260505171555 7 254 9.7 24.1 0.00 0.00 0.00 71 1006.8
20260505171050 7 300 6.4 35.4 0.00 0.00 0.00 72 1006.8
20260505170551 7 250 14.5 35.4 0.00 0.00 0.00 71 1006.7
20260505170048 7 283 9.7 25.7 0.00 0.00 0.00 72 1006.7
20260505165547 7 226 11.3 25.7 0.00 0.00 0.00 73 1006.7
20260505165046 7 206 11.3 29.0 0.00 0.00 0.00 75 1006.6
20260505164546 7 279 11.3 29.0 0.00 0.00 0.00 75 1006.6
20260505164047 7 254 9.7 20.9 0.00 0.00 0.00 76 1006.7
20260505163545 7 279 8.0 17.7 0.00 0.00 0.00 78 1006.8
20260505163042 6 235 9.7 19.3 0.00 0.00 0.00 80 1006.8
20260505162543 6 250 8.0 16.1 0.00 0.00 0.00 80 1006.8
20260505162040 6 279 6.4 17.7 0.00 0.00 0.00 81 1006.8
20260505161541 6 248 8.0 17.7 0.00 0.00 0.00 80 1006.6
20260505161024 6 273 4.8 17.7 0.00 0.00 0.00 81 1006.5
20260505160521 6 266 8.0 17.7 0.00 0.00 0.00 81 1006.5
20260505153007 6 307 6.4 19.3 0.00 0.00 0.00 81 1005.9
20260505152507 6 338 6.4 20.9 0.00 0.00 0.00 81 1006.1
20260505152005 6 271 8.0 20.9 0.00 0.00 0.00 80 1006.0
20260505151503 6 266 9.7 16.1 0.00 0.00 0.00 79 1005.8
20260505151001 6 281 4.8 17.7 0.00 0.00 0.00 79 1005.6
20260505150600 6 332 9.7 19.3 0.00 0.00 0.00 78 1005.2
20260505150502 6 313 9.7 19.3 0.00 0.00 0.00 78 1005.1
20260505140551 6 333 4.8 22.5 0.00 0.00 0.00 81 1004.1
20260505125003 6 321 8.0 20.9 0.00 0.00 0.00 84 1003.4
20260505124506 6 321 8.0 17.7 0.00 0.00 0.00 83 1003.5
20260505124102 6 345 4.8 17.7 0.00 0.00 0.00 84 1003.4
20260505123542 6 330 8.0 16.1 0.00 0.00 0.00 83 1003.3
20260505123043 6 321 6.4 20.9 0.00 0.00 0.00 83 1003.1
20260505122542 6 323 8.0 20.9 0.00 0.00 0.00 83 1003.0
20260505122040 6 336 6.4 19.3 0.00 0.00 0.00 84 1002.9
20260505121546 6 355 8.0 20.9 0.00 0.00 0.00 83 1002.8
20260505121039 6 311 6.4 19.3 0.00 0.00 0.00 83 1002.6
20260505120519 6 327 8.0 16.1 0.00 0.00 0.00 84 1002.6
20260505120023 6 29 9.7 16.1 0.00 0.00 0.00 84 1002.4
20260505115518 6 327 8.0 17.7 0.00 0.00 0.00 84 1002.3
20260505115016 6 345 6.4 16.1 0.00 0.00 0.00 85 1002.2
20260505114515 6 355 6.4 14.5 0.00 0.00 0.00 84 1002.0
20260505114015 6 355 6.4 16.1 0.00 0.00 0.00 85 1001.8
20260505113503 6 17 9.7 16.1 0.00 0.00 0.00 85 1001.7
20260505113002 6 360 8.0 17.7 0.00 0.00 0.00 85 1001.7
20260505112502 6 318 4.8 17.7 0.00 0.00 0.00 86 1001.9
20260505112100 6 26 6.4 14.5 0.00 0.00 0.00 86 1001.9
20260505111601 6 20 4.8 16.1 0.00 0.00 0.00 86 1001.8
20260505111058 6 325 8.0 19.3 0.00 0.00 0.00 86 1001.6
20260505110556 6 332 8.0 19.3 0.00 0.00 0.00 86 1001.6